Regional Weather Roundup
Issued by NWS

Home | Current Version | Previous Version | Graphics & Text | Print | Product List | Glossary On
Versions: 1 2 3 4 5 6 7 8 9 10 11 12 13 14 15 16 17 18 19 20 21 22 23 24 25 26 27 28 29 30 31 32 33 34 35 36 37 38 39 40 41 42 43 44 45 46 47 48 49 50
634
ASUS43 KMPX 180701
RWRMN
WEATHER ROUNDUP FOR MINNESOTA
NATIONAL WEATHER SERVICE TWIN CITIES/CHANHASSEN MN
100 AM CST WED JAN 18 2017


NOTE: "FAIR" INDICATES FEW OR NO CLOUDS BELOW 12,000 FEET WITH NO
SIGNIFICANT WEATHER AND/OR OBSTRUCTIONS TO VISIBILITY. N/A MEANS
CURRENT SKY AND/OR WEATHER CONDITIONS ARE NOT AVAILABLE.

MNZ060>063-068>070-180800-
   Twin Cities Metro

CITY           SKY/WX    TMP DP  RH WIND       PRES   REMARKS
TWIN CITIES    CLOUDY    30  26  85 S7        29.98S WCI  23
ST PAUL        CLOUDY    30  28  92 S7        29.99S WCI  23
CRYSTAL        CLOUDY    30  25  81 S12       29.95F WCI  20
BLAINE         CLOUDY    30  30 100 S9        29.95F WCI  22
LAKEVILLE        N/A     27  27 100 S3        29.98S FOG
EDEN PRAIRIE   CLOUDY    29  26  89 S9        29.96S FOG     WCI  20
SOUTH ST PAUL  CLOUDY    31  29  93 S9        29.98S WCI  22
LAKE ELMO      CLOUDY    30  30 100 S9        29.98S FOG     WCI  22
$$
MNZ001>005-007-008-013>017-022>024-027-028-180800-
   Northwest Minnesota

CITY           SKY/WX    TMP DP  RH WIND       PRES   REMARKS
BEMIDJI        PTCLDY    26  18  70 SW8       29.71F WCI  18
HALLOCK        CLOUDY    19  16  86 S16       29.64R WCI   5
ROSEAU         CLOUDY    25  18  74 S14       29.63F WCI  13
WARROAD        CLOUDY    25  19  80 SW13      29.63F WCI  13
THIEF RVR FALL CLOUDY    22  17  81 SW17      29.69F WCI   8
CROOKSTON      CLOUDY    21  18  86 S20       29.71F WCI   6
FOSSTON        PTCLDY    23  18  80 S17       29.73S WCI   9
DETROIT LAKES  CLOUDY    28  21  74 SW12      29.77F WCI  18
MOORHEAD       CLOUDY    21  18  86 S14G20    29.78F WCI   8
PARK RAPIDS    CLOUDY    20  14  77 S10       29.76F WCI   9
MAHNOMEN       FAIR      26  21  81 SW17      29.74S WCI  13
$$
MNZ006-009>011-018-025>026-180800-
   North Central Minnesota

CITY           SKY/WX    TMP DP  RH WIND       PRES   REMARKS
BAUDETTE       CLOUDY    27  17  66 SW6       29.65R WCI  20
FLAG ISLAND    CLOUDY    23  18  80 S8        29.60F WCI  14
INTL FALLS     CLOUDY    28  19  69 S8G17     29.65F WCI  20
WASKISH        CLOUDY    30  21  69 S9        29.67F WCI  22
LONGVILLE      CLOUDY    23  18  80 S8        29.79F WCI  14
GRAND RAPIDS   CLOUDY    22  17  81 S9        29.80S WCI  12
CRANE LAKE     CLOUDY    27  18  69 S8        29.73F WCI  18
ORR            CLOUDY    23  16  74 CALM      29.70F
COOK           CLOUDY    25  18  74 S6        29.75S WCI  18
WALKER         FAIR      24  17  74 SW10      29.75F WCI  14
$$
MNZ012-019>021-037-180800-
   Northeast Minnesota

CITY           SKY/WX    TMP DP  RH WIND       PRES   REMARKS
DULUTH         CLOUDY    23  21  92 SW14      29.82F WCI  11
ELY            CLOUDY    25  18  74 SW8       29.75F WCI  16
HIBBING        CLOUDY    19  14  81 S3        29.78F
EVELETH        CLOUDY    22  17  78 SW7       29.79F WCI  14
DULUTH HARBOR  CLOUDY    27  23  86 SW10      29.88R WCI  17
TWO HARBORS    CLOUDY    25  18  74 SW3       29.82S
SILVER BAY     CLOUDY    18  18 100 CALM      29.80F
GRAND MARAIS     N/A     30  26  85 W5        29.81F WCI  25
G MARAIS ARPRT CLOUDY    21  18  86 SW5       29.76F FOG     WCI  15
$$
MNZ029>031-032-039>041-046>048-054>057-064-180800-
   West Central Minnesota

CITY           SKY/WX    TMP DP  RH WIND       PRES   REMARKS
FERGUS FALLS   CLOUDY    19  16  86 S10       29.87F WCI   8
WHEATON        CLOUDY    27  23  86 SE13      29.84F WCI  16
MORRIS         CLOUDY    16  14  93 SE10      29.85F WCI   3
ALEXANDRIA     CLOUDY    22  18  85 S12       29.85F WCI  10
ELBOW LAKE     FAIR      19  17  90 S13       29.84F WCI   6
WADENA         CLOUDY    21  18  86 S13       29.80F WCI   9
GLENWOOD       CLOUDY    18  18 100 S6        29.87F WCI   9
APPLETON       CLOUDY    16  12  86 SE3       29.88S
ORTONVILLE     CLOUDY    19  16  86 CALM      29.85F
MADISON        CLOUDY    27  23  86 S12       29.87S WCI  16
WILLMAR        FAIR      16  14  93 CALM      29.90F
$$
MNZ033>034-036-042>043-049>051-058-059-180800-
   Central Minnesota

CITY           SKY/WX    TMP DP  RH WIND       PRES   REMARKS
ST CLOUD       CLOUDY    23  23 100 S5        29.91F FOG     WCI  17
SAUK CENTRE    FAIR      16  15  95 SE7       29.88F WCI   6
PAYNESVILLE    CLOUDY    19  19 100 CALM      29.90F
AITKIN         CLOUDY    23  18  80 S8        29.82F WCI  14
PINE RIVER     CLOUDY    19  16  86 S6        29.84F WCI  11
BRAINERD       CLOUDY    20  17  88 S9        29.84F WCI   9
STAPLES        CLOUDY    16  12  86 S6        29.83F WCI   7
LONG PRAIRIE   FAIR      12  10  92 SE7       29.87F FOG     WCI   2
LITTLE FALLS   CLOUDY    16  12  86 SE8       29.89F FOG     WCI   5
LITCHFIELD     CLOUDY    23  21  93 CALM      29.92F
BUFFALO        CLOUDY    27  25  94 S8        29.95S WCI  18
MAPLE LAKE     CLOUDY    26  26  99 S6        29.93F WCI  20
HUTCHINSON     CLOUDY    23  22  96 CALM      29.94F
$$
MNZ037-044-045-052-053-180800-
   East Central Minnesota

CITY           SKY/WX    TMP DP  RH WIND       PRES   REMARKS
PRINCETON      CLOUDY    28  27  93 S7        29.92R FOG     WCI  21
MORA           CLOUDY    25  23  93 SW7       29.93S FOG     WCI  17
CAMBRIDGE      CLOUDY    28  25  86 S8G17     29.91F HAZE    WCI  20
RUSH CITY      CLOUDY    27  25  93 S9        29.92F FOG     WCI  17
MOOSE LAKE     CLOUDY    27  23  86 SW8       29.85F WCI  18
HINCKLEY       PTSUNNY   25  23  93 S7        29.91S WCI  17
CLOQUET        CLOUDY    25  23  93 SW8       29.84S FOG     WCI  16
MCGREGOR       CLOUDY    21  19  93 S8        29.84F WCI  12
$$
MNZ071>073-080-081-089-090-097-098-180800-
   Southwest Minnesota

CITY           SKY/WX    TMP DP  RH WIND       PRES   REMARKS
MONTEVIDEO     CLOUDY    21  19  93 SW5       29.90F WCI  15
GRANITE FALLS  CLOUDY    23  22  93 S13       29.91S WCI  12
CANBY            N/A     34  29  82 SW9       29.87S WCI  27
MARSHALL       CLOUDY    30  27  88 S18       29.87F WCI  18
REDWOOD FALLS  CLOUDY    24  20  84 S10       29.92F WCI  14
OLIVIA         CLOUDY    23  21  93 S9        29.90F WCI  13
PIPESTONE      CLOUDY    27  25  93 S13       29.91S WCI  16
WINDOM         CLOUDY    27  25  93 S10       29.96R WCI  17
WORTHINGTON    CLOUDY    27  25  92 S14       29.95F WCI  16
JACKSON        CLOUDY    27  25  93 S7        29.97F FOG     WCI  19
TRACY          CLOUDY    32  28  86 SW26      29.89F WCI  18
SLAYTON        CLOUDY    27  25  94 S18       29.93F WCI  13
$$
MNZ065>067-074>077-082>085-091>093-180800-
   South Central Minnesota

CITY           SKY/WX    TMP DP  RH WIND       PRES   REMARKS
MANKATO        CLOUDY    25  24  96 S9        29.99S FOG     WCI  15
NEW ULM        CLOUDY    21  19  93 S8        29.96S WCI  12
ST JAMES       CLOUDY    27  25  93 S9        29.98S WCI  17
FAIRMONT       CLOUDY    27  26  96 S14       29.99F FOG     WCI  16
GLENCOE        CLOUDY    25  25 100 S6        29.95F WCI  18
FARIBAULT      CLOUDY    27  27 100 S8        29.99S WCI  18
OWATONNA       CLOUDY    28  27  93 S8        30.00S FOG     WCI  20
WASECA         CLOUDY    28  27  93 S16       30.01S FOG     WCI  17
ALBERT LEA     CLOUDY    28  28 100 SW5       30.01S FOG     WCI  23
$$
MNZ078>079-086>088-094>096-180800-
   Southeast Minnesota

CITY           SKY/WX    TMP DP  RH WIND       PRES   REMARKS
ROCHESTER      CLOUDY    27  27 100 SW15      30.00F FOG     WCI  15
RED WING       CLOUDY    30  28  93 SW8       30.01R WCI  23
STANTON        CLOUDY    28  26  90 S5        29.98S WCI  23
DODGE CENTER   CLOUDY    27  27 100 SW5       29.99S FOG     WCI  21
WINONA         CLOUDY    34  32  93 SW3       30.03S
AUSTIN         CLOUDY    28  27  93 SW9       30.01S FOG     WCI  20
PRESTON        CLOUDY    28  27  96 SW10      30.01F WCI  19
$$
ABBREVIATIONS USED IN REMARKS
   TC - TEMPERATURES IN CELSIUS
  WCI - WIND CHILL INDEX
   HX - HEAT INDEX
  VSB - VISIBILITY
$$




USA.gov is the U.S. government's official web portal to all federal, state and local government web resources and services.